Location: アルンシュタイン
(50.0000°N, 10.0000°E)
Time: 15:01:33
(UTC+02:00)

Vanguard 1 - Pass Details

Date: 11 September 2024
Orbit: 649 x 3825 km, 34.3° (Epoch: 02 October)

Event Time Altitude Azimuth Distance (km) Brightness Sun altitude
Rises 16:23:28 0° 237° (WSW) 4,434 14.6 29.7°
Reaches altitude 10° 16:28:06 10° 219° (SW) 2,920 13.9 29.1°
Maximum altitude 16:31:59 16° 183° (S) 2,111 12.4 28.5°
Drops below altitude 10° 16:35:08 10° 144° (SE) 2,268 12.0 28.1°
Sets 16:38:04 0° 121° (ESE) 3,023 12.3 27.7°
